Location: Condor
(52.3263°N, 114.5541°W)
Time: 21:51:22
(UTC+00:00)

Oscar 19 - Pass Details

Date: 14 December 2023
Orbit: 771 x 789 km, 98.9° (Epoch: 04 March)

Event Time Altitude Azimuth Distance (km) Brightness Sun altitude
Rises 12:06:03 0° 19° (NNE) 3,282 14.1 -31.3°
Reaches altitude 10° 12:08:28 10° 25° (NNE) 2,352 13.4 -30.9°
Maximum altitude 12:13:29 49° 100° (E) 1,015 11.5 -30.2°
Drops below altitude 10° 12:18:30 10° 175° (S) 2,345 13.2 -29.4°
Sets 12:20:53 0° 181° (S) 3,271 13.9 -29.0°
